Flag for Malaysia Weather past 2 weeks in Johor Bahru, Malaysia

Now
84 °F

Sprinkles. Broken clouds.


Feels Like: 92 °F
Forecast: 77 / 91 °F
Wind: 13 mph from Northeast

Location: Singapore / Paya Lebar

Current Time: May 26, 2015 at 6:39:04 PM

Latest Report: May 26, 2015 at 6:00 PM


Visibility: 4 mi

Pressure: 29.80 "Hg

Humidity: 74%

Dew point: 75 °F

Location of Johor BahruLocation

Historic Weather in Johor Bahru — Graph

°F

Johor Bahru temperature yesterday

Maximum temperature yesterday: 90 °F (at 11:00 AM)
Minimum temperature yesterday: 82 °F (at 5:00 AM)
Average temperature yesterday: 85 °F

Past Weeks' High & Low Weather Summary

 TemperatureHumidityPressure
High95 °F (May 14, 3:00 PM)94% (May 15, 12:00 PM)29.95 "Hg (May 15, 12:00 PM)
Low77 °F (May 15, 12:00 PM)50% (May 14, 3:00 PM)29.74 "Hg (May 11, 5:00 PM)
Average85 °F78%29.83 "Hg
* Reported May 11 5:00 PM — May 26 5:00 PM, Johor Bahru, Weather by CustomWeather, © 2015

Note: Actual official high and low records may vary slightly from our data, if they occured in-between our weather recording intervals... More about our weather records

Advertising

Johor Bahru weather history for previous 24 hours

 ConditionsComfort  
Time TempWeatherWind HumidityBarometerVisibility
5:00 PM
Tue, May 26
88 °FScattered showers. Scattered clouds.7 mph66%29.80 "HgN/A
4:00 PM88 °FScattered showers. Scattered clouds.10 mph70%29.77 "HgN/A
3:00 PM90 °FPartly sunny.13 mph63%29.80 "HgN/A
2:00 PM91 °FThundershowers. Partly sunny.13 mph59%29.83 "HgN/A
1:00 PM90 °FPartly sunny.9 mph63%29.86 "HgN/A
12:00 PM90 °FPartly sunny.10 mph63%29.86 "HgN/A
11:00 AM88 °FPartly sunny.9 mph70%29.89 "HgN/A
10:00 AM88 °FPartly sunny.8 mph70%29.89 "HgN/A
9:00 AM86 °FPartly sunny.8 mph79%29.89 "HgN/A
8:00 AM84 °FPartly sunny.6 mph84%29.86 "HgN/A
7:00 AM82 °FPartly sunny.1 mph89%29.86 "HgN/A
6:00 AM82 °FPassing clouds.3 mph84%29.86 "HgN/A
5:00 AM82 °FPassing clouds.3 mph84%29.86 "HgN/A
11:00 PM
Mon, May 25
84 °FPassing clouds.3 mph84%29.89 "HgN/A
10:00 PM84 °FPassing clouds.6 mph84%29.89 "HgN/A
9:00 PM84 °FPassing clouds.6 mph84%29.86 "HgN/A
8:00 PM84 °FPassing clouds.6 mph79%29.83 "HgN/A
7:00 PM84 °FPartly sunny.6 mph79%29.83 "HgN/A
6:00 PM84 °FPartly sunny.8 mph74%29.80 "HgN/A
Weather by CustomWeather, © 2015

See weather overviewHow to use our weather pages